Theta_e
345 347 350 354 354 354 354 354 354 354 355 355 355 355 355 355 354 354 354 353 352 352 352 352 352 353 353 355 354 354 354 354 353 353 354 353 354 353 353 353 353 352 352 353 352 352 352 351 352 352 351 352 352 351 351 350 350 350 349 349 348 348 347 346 347 348 347 346 346 346 346 346 346 346 346 347 347 347 348 349 345 339 339 341 345
346 349 351 352 354 354 354 354 354 354 354 355 355 355 354 354 354 354 353 353 352 352 352 353 354 354 355 354 355 354 354 353 353 353 353 353 353 353 353 353 353 352 352 352 352 352 352 351 351 349 349 349 349 350 351 350 349 349 348 348 347 347 346 346 347 346 346 346 345 345 344 344 344 344 345 346 346 345 345 345 344 339 338 341 342
347 348 351 352 354 354 354 353 354 354 353 355 355 354 354 354 354 354 354 353 353 354 354 354 354 355 354 354 354 354 354 353 353 353 353 353 352 352 352 352 352 352 351 352 352 352 351 350 349 348 347 348 348 348 349 349 349 348 348 347 347 347 346 346 347 347 345 345 346 346 344 344 343 343 344 345 345 345 344 344 343 342 338 342 341
346 347 350 352 353 353 353 353 353 353 354 354 354 354 354 354 354 354 354 354 355 355 355 355 355 355 354 354 354 354 353 353 353 353 353 352 352 352 353 352 351 352 352 352 351 351 350 350 350 349 348 347 347 348 348 348 348 348 347 347 346 345 345 345 345 346 346 346 345 345 342 338 340 343 343 344 344 344 344 344 343 341 341 341 341
346 349 350 350 351 353 353 353 353 354 353 354 354 354 354 355 354 354 355 355 355 355 355 355 355 354 354 354 354 353 353 353 353 353 352 352 352 352 351 352 351 351 352 352 351 351 350 350 350 350 349 349 348 347 347 347 348 347 347 346 344 345 345 345 345 344 346 345 346 348 335 336 337 341 342 343 343 343 344 343 342 342 341 341 341
346 347 348 349 350 351 353 352 352 352 353 353 353 353 354 354 355 355 355 355 355 355 355 355 354 354 354 353 353 354 354 353 353 352 352 351 353 351 351 351 351 352 352 351 351 351 350 350 350 350 350 350 349 348 345 345 346 346 346 346 344 344 346 345 344 346 346 348 344 344 338 337 336 339 342 342 341 340 341 340 340 341 341 341 340
343 345 347 348 349 351 352 352 352 352 352 352 353 353 354 355 355 355 354 354 355 355 355 354 354 354 354 354 353 353 353 353 352 351 351 351 353 352 350 351 350 350 350 350 351 350 349 349 350 349 349 348 348 347 346 345 344 345 344 343 343 343 342 345 344 345 345 347 344 344 337 337 336 339 343 343 342 340 341 342 342 342 342 342 341
344 345 346 348 348 351 352 352 351 351 351 352 352 353 354 354 354 354 354 355 355 354 354 354 354 354 353 353 353 353 352 352 351 352 352 352 351 351 350 349 349 350 350 350 351 350 350 350 350 349 348 346 345 345 344 344 344 344 343 343 343 344 344 345 346 346 346 345 342 339 337 337 337 338 342 342 342 343 343 342 342 342 342 342 341
344 345 346 348 348 352 351 351 351 351 351 351 352 352 353 354 353 353 353 354 354 354 354 354 354 354 353 353 352 352 351 351 351 352 351 351 351 350 350 349 350 351 350 350 350 349 349 349 349 348 346 344 344 346 346 345 345 344 344 343 344 344 344 345 345 347 344 342 339 338 337 336 337 337 341 345 346 346 343 343 342 343 343 342 340
346 347 347 347 348 351 351 351 351 351 351 351 352 353 353 353 353 353 353 354 354 354 354 354 353 353 353 352 352 352 351 351 350 350 350 349 349 349 349 348 348 349 350 350 350 349 349 348 347 346 344 344 346 348 348 346 344 345 344 344 345 343 345 345 346 346 340 341 337 339 341 343 337 338 341 344 346 346 345 345 343 342 341 341 341
347 345 345 347 347 350 350 350 350 351 351 351 352 353 353 353 353 354 354 354 354 354 354 353 353 353 353 353 352 352 351 349 348 347 347 347 347 347 348 348 347 347 347 347 349 350 349 347 346 345 344 345 346 347 349 348 345 344 345 344 344 345 345 345 345 340 333 330 330 337 343 345 337 338 341 343 345 345 345 343 342 341 340 339 339
346 345 345 347 351 350 350 350 350 350 351 352 352 353 353 353 353 354 354 354 354 354 354 353 353 353 352 352 351 350 350 349 348 347 346 345 345 346 346 347 346 345 346 347 350 349 348 346 345 344 343 345 347 348 348 348 347 345 345 346 345 345 346 345 342 340 336 337 339 336 335 336 336 338 342 342 342 341 341 341 340 340 340 338 338
345 346 346 347 347 350 350 350 350 350 351 352 352 353 353 353 354 354 354 354 353 354 353 353 352 352 352 351 350 349 348 348 347 347 347 347 346 345 345 346 346 345 345 346 347 346 346 346 344 343 344 346 345 346 347 347 347 346 345 345 345 344 344 345 340 339 332 333 336 336 336 336 337 341 341 341 341 341 341 340 339 340 339 339 338
346 344 344 345 345 351 349 350 350 350 351 352 352 353 353 354 354 354 354 354 353 353 353 352 352 352 351 350 349 349 348 348 348 347 346 345 345 345 344 344 344 344 344 344 344 344 344 345 344 343 343 345 348 346 347 347 346 346 346 344 345 344 344 343 344 340 333 334 341 339 338 339 338 343 341 342 342 341 342 341 340 339 338 338 337
343 343 344 344 343 345 350 350 350 351 351 352 353 353 354 354 354 354 354 354 354 353 353 352 352 351 351 351 350 349 348 347 346 345 344 344 344 344 344 342 342 342 342 342 342 342 342 344 344 343 343 345 345 347 345 347 345 345 345 344 345 344 344 338 339 338 333 338 340 338 338 338 345 344 343 344 344 343 341 340 339 339 338 339 338
344 344 344 342 342 343 346 350 351 351 352 353 353 354 354 354 354 354 353 354 353 353 352 352 352 352 351 350 349 348 347 345 344 344 344 343 342 342 342 342 341 342 342 341 341 341 341 342 343 344 344 343 346 345 346 345 346 344 345 345 345 345 345 345 341 341 335 334 340 340 339 340 345 343 343 344 343 343 341 340 339 339 339 339 340
345 344 342 342 342 343 343 344 348 351 352 353 353 354 354 354 354 354 353 353 353 352 352 352 352 351 350 349 348 347 347 346 346 345 345 344 342 341 340 340 341 341 341 340 340 341 341 342 342 344 343 343 344 345 345 346 346 345 343 345 345 344 346 347 341 338 332 337 340 338 338 340 342 342 343 342 342 342 342 341 339 338 339 339 339
344 343 342 342 342 343 343 343 347 348 350 352 353 354 353 353 354 353 353 353 353 352 352 352 351 350 349 348 348 348 347 346 345 345 344 343 343 342 340 339 338 339 340 340 340 341 341 341 343 342 342 343 342 343 345 345 345 345 345 345 345 346 348 348 339 337 338 340 342 341 340 344 344 343 343 342 341 340 339 339 339 338 338 337 337
344 344 343 342 341 342 342 341 343 345 348 349 351 351 353 353 353 353 353 352 352 352 352 351 351 350 349 349 348 348 347 347 346 345 344 344 344 343 342 342 341 339 339 338 340 340 340 342 343 343 341 342 343 342 344 347 345 344 344 345 345 346 347 344 340 341 336 340 340 339 341 345 344 343 343 341 340 338 338 338 338 336 336 336 335
344 344 343 342 342 341 340 340 341 343 346 348 348 350 352 352 353 352 353 352 352 351 351 351 350 349 349 349 348 348 347 346 347 344 345 345 344 344 344 343 340 340 339 340 340 341 340 342 343 343 341 342 344 344 344 346 347 345 344 345 345 346 340 339 342 343 337 339 339 339 345 344 343 342 340 339 338 339 337 336 336 336 335 334 334
343 342 343 342 342 340 340 341 341 342 343 344 347 349 350 352 352 352 352 352 351 351 351 351 350 350 350 349 349 346 346 345 344 342 345 345 344 344 344 343 343 341 340 339 340 341 342 342 342 341 343 342 343 344 345 345 345 346 345 345 346 341 338 341 343 337 338 338 339 341 345 343 342 340 339 338 337 338 337 334 335 335 334 334 333
340 341 342 343 342 342 343 342 342 343 343 345 344 348 348 350 351 351 351 351 351 351 350 350 353 350 350 349 348 349 348 345 347 347 345 343 343 343 343 343 343 343 342 340 341 341 340 342 340 339 340 341 343 341 343 345 346 346 345 345 342 338 339 342 340 337 338 338 340 343 344 343 342 341 339 337 337 338 338 334 336 333 334 333 332
339 340 342 345 344 344 344 343 343 345 345 344 344 345 345 348 349 349 349 351 352 351 349 350 350 350 349 348 350 350 348 348 350 347 346 343 343 343 344 343 343 343 343 342 342 341 342 341 340 339 339 341 338 337 340 343 343 346 345 343 339 339 340 342 339 337 337 339 338 345 344 343 342 341 338 336 336 340 338 336 335 333 333 332 332
340 341 342 346 345 344 345 345 346 346 345 343 343 342 344 344 345 347 348 350 350 350 349 350 350 349 350 349 350 350 351 351 351 352 351 345 343 345 344 343 343 343 344 342 342 343 342 343 341 341 340 335 332 335 338 344 343 343 340 340 340 340 341 340 337 334 341 341 338 346 345 343 342 339 339 337 336 339 338 338 335 333 333 333 331
343 343 344 346 347 347 347 347 347 346 345 344 341 340 343 342 341 344 346 348 349 349 348 348 348 349 347 348 347 348 348 348 349 348 346 346 344 344 344 343 343 343 344 342 341 340 341 336 334 339 333 331 330 331 333 340 344 342 341 340 340 341 340 338 339 337 338 338 340 346 345 343 342 342 341 339 337 339 337 335 334 335 334 332 331
345 342 343 345 347 348 348 347 348 347 347 343 341 342 343 340 340 341 343 346 348 347 347 347 346 348 349 347 351 347 351 345 342 345 343 345 345 343 342 343 344 343 344 342 343 341 335 335 329 329 329 330 329 330 331 337 341 344 342 342 343 342 339 338 337 340 337 339 341 346 344 344 344 343 341 340 338 338 337 335 335 335 335 332 331
343 343 345 345 348 348 349 347 347 347 348 346 344 342 340 341 341 341 341 343 344 344 344 343 346 346 353 348 347 345 344 349 341 345 345 344 344 346 344 345 345 344 344 340 342 343 338 337 333 331 330 329 328 331 335 334 336 338 340 340 341 339 339 337 336 337 337 340 341 347 345 343 344 343 341 341 340 338 337 335 335 336 336 334 332
343 344 344 346 347 347 349 347 346 346 346 347 345 341 341 340 341 341 341 342 341 342 342 344 346 345 348 352 349 345 344 348 344 349 353 349 347 345 345 344 343 343 345 339 341 344 343 342 345 338 335 334 335 337 332 329 331 335 332 333 335 338 339 338 339 341 341 339 341 346 345 345 345 343 343 341 341 339 338 337 337 336 338 334 333
342 343 345 346 347 347 349 348 347 347 346 346 344 341 341 341 343 341 342 346 341 341 345 344 344 344 348 350 347 350 346 350 346 346 346 346 349 349 347 346 346 348 346 346 346 348 347 344 343 340 340 339 339 338 339 337 336 333 332 331 332 334 337 340 340 339 339 342 340 341 346 346 343 343 343 341 342 341 339 338 338 336 337 336 334
343 345 345 346 347 349 348 347 347 346 346 345 345 341 344 341 343 341 348 342 349 342 353 346 349 343 345 349 345 348 352 351 346 346 344 345 349 346 347 347 345 345 346 344 349 352 351 350 345 342 339 339 338 338 343 339 336 336 334 331 338 335 337 341 339 339 338 339 342 344 346 344 345 343 343 342 341 341 340 340 338 337 337 338 335
345 344 344 346 347 348 346 348 349 348 346 344 344 344 344 342 341 341 350 340 351 353 346 347 347 347 344 350 346 349 352 349 349 346 347 346 347 347 346 349 346 347 349 352 352 347 349 347 345 345 346 346 345 342 340 337 337 336 337 334 337 336 335 337 342 343 341 341 341 346 342 347 344 343 342 342 342 341 341 341 339 340 337 337 337
344 344 345 346 346 347 347 348 348 347 346 344 346 342 342 343 341 340 346 341 349 350 344 345 345 345 345 347 347 350 351 350 348 348 344 345 344 344 345 346 349 349 349 350 349 352 351 349 349 349 350 349 344 346 343 340 338 336 337 335 337 337 341 341 344 343 342 340 341 345 343 343 344 343 343 342 341 342 342 342 342 343 338 338 338
345 346 345 346 345 346 346 347 346 347 346 347 345 343 343 340 338 343 342 341 347 348 346 345 348 347 347 346 349 349 350 349 350 348 345 345 343 343 342 343 344 350 354 351 352 351 348 349 349 349 347 347 345 345 342 341 340 338 338 336 336 337 342 340 345 345 339 339 342 343 339 342 342 343 342 342 340 341 342 342 343 342 339 339 338
342 344 345 345 346 347 346 346 346 346 346 349 343 346 345 341 343 347 343 350 349 347 346 346 347 347 346 348 349 349 348 350 349 349 348 344 343 342 342 341 342 347 352 354 351 351 347 346 347 346 346 345 342 341 340 338 338 339 338 339 338 342 341 340 338 339 343 342 341 341 342 340 341 341 339 342 341 340 341 343 344 342 339 339 339
342 343 344 345 345 346 346 345 346 344 346 348 344 343 349 342 344 345 346 344 348 344 349 351 352 347 346 347 349 350 349 349 349 347 345 342 341 342 341 340 342 347 352 350 350 347 347 344 347 344 346 344 342 340 339 339 337 336 337 339 339 341 342 338 340 340 341 340 342 340 339 340 340 343 341 338 341 341 340 341 342 341 340 339 339
343 344 344 344 344 345 346 344 345 344 346 346 347 345 349 350 350 348 345 349 348 346 348 352 354 351 351 348 349 351 350 349 349 350 350 343 342 339 343 346 350 353 349 350 348 345 345 348 347 345 344 340 340 338 339 337 339 337 341 339 340 342 340 342 342 341 340 341 337 339 343 338 341 340 343 340 338 338 340 339 339 341 340 340 339
344 344 343 343 343 345 345 344 344 344 344 344 347 346 348 352 351 347 345 349 347 348 347 347 349 352 350 350 351 351 350 349 349 349 351 350 348 350 350 351 351 348 354 350 346 346 345 346 347 344 343 340 338 337 338 339 339 338 338 337 340 340 338 339 340 341 342 338 338 339 339 340 340 344 341 339 340 339 339 339 339 339 340 340 340
345 345 345 343 343 343 344 343 345 344 345 343 348 343 348 351 349 346 343 337 334 336 338 338 341 345 351 350 352 351 349 350 352 352 356 351 351 345 346 349 349 353 351 351 345 347 348 348 343 344 343 341 338 337 337 338 340 339 337 338 339 340 340 341 341 342 340 337 338 337 340 339 337 339 341 339 340 341 340 338 339 338 339 339 340
345 345 344 344 343 343 343 343 343 343 344 345 346 345 349 346 338 336 336 337 337 339 340 340 339 340 341 341 345 351 352 352 352 351 352 350 347 351 352 351 351 352 352 346 345 346 349 346 343 342 344 342 340 339 338 340 339 339 338 339 340 340 341 341 341 340 339 339 339 341 343 339 337 337 339 336 337 337 339 336 335 335 335 338 338
345 345 343 344 343 343 343 342 341 343 344 344 342 341 341 335 336 339 337 335 338 337 339 340 342 341 343 343 343 346 350 354 349 353 352 355 354 355 352 352 349 352 351 345 344 343 344 342 342 341 340 341 341 340 339 338 338 337 337 338 339 339 341 341 340 340 340 339 340 340 338 339 339 337 339 338 338 338 337 338 337 334 334 335 338
345 344 343 343 343 342 340 339 342 343 341 339 339 339 335 333 335 335 334 336 338 340 339 340 341 342 342 342 342 347 350 349 349 353 353 355 354 358 354 350 349 350 351 345 347 345 345 344 342 342 340 337 338 340 341 339 334 332 334 334 335 338 338 339 340 340 339 338 340 338 338 338 338 338 338 341 340 337 337 336 338 336 334 334 334
342 343 342 343 342 342 339 340 342 344 344 344 340 337 338 337 334 333 335 335 336 337 338 339 339 340 342 341 343 347 347 347 348 350 357 353 354 353 355 352 352 351 349 347 346 343 345 344 343 340 342 338 336 340 342 337 332 328 326 327 329 331 335 336 338 339 338 337 337 338 338 338 338 338 339 339 339 337 337 337 337 337 336 335 335
342 342 343 342 341 339 339 338 337 338 339 339 338 335 336 338 336 335 337 337 339 341 340 340 340 338 339 343 344 344 343 343 347 349 353 353 351 351 351 349 347 347 345 344 345 344 344 343 342 340 338 340 337 341 341 340 331 332 330 327 323 323 329 334 338 338 339 338 338 337 338 338 338 339 339 338 336 336 337 338 338 337 337 336 336
340 341 342 341 341 339 337 337 337 339 336 336 337 338 337 338 339 339 339 340 337 337 338 340 338 337 338 341 346 343 344 340 342 341 349 352 353 349 348 349 349 347 347 344 343 342 344 346 343 342 341 335 334 336 342 340 336 331 324 324 324 323 319 326 327 334 338 337 338 338 339 338 339 339 340 338 337 336 338 338 337 338 337 337 337
339 340 341 341 341 338 337 338 338 336 335 336 338 337 337 337 337 337 338 338 338 337 335 335 335 337 336 337 340 344 343 343 345 345 345 349 347 348 348 348 347 347 345 342 340 340 340 340 342 342 340 337 333 335 337 340 338 339 332 325 322 320 319 323 327 326 334 335 336 337 338 338 338 338 339 339 339 338 337 337 337 337 337 337 338
339 341 342 342 341 339 338 338 336 336 334 337 340 340 339 338 336 334 333 334 332 332 332 334 335 338 337 338 339 341 344 344 346 347 346 345 347 346 346 343 344 345 345 343 342 341 341 340 340 339 339 338 336 333 333 338 339 338 338 334 330 323 323 326 325 319 329 330 332 336 336 337 338 336 337 338 338 338 338 337 339 338 338 337 338
340 342 341 341 340 340 339 337 335 335 337 338 339 339 337 338 338 337 337 335 335 336 337 337 338 338 339 339 340 342 341 347 346 347 346 341 342 343 343 342 340 342 345 342 341 341 339 339 339 337 338 338 337 332 332 332 335 336 338 338 337 336 334 328 323 325 320 326 330 331 334 338 337 336 336 336 337 337 338 338 338 336 338 338 338
340 341 341 341 341 340 338 337 336 336 339 340 339 338 336 337 337 337 337 338 336 334 336 337 339 338 340 336 339 338 340 342 341 339 339 338 338 339 338 339 339 336 336 337 338 339 338 339 340 341 341 340 337 334 332 333 330 330 335 334 333 334 334 332 331 327 323 320 323 329 332 333 335 336 336 336 336 336 337 337 338 337 335 335 337
340 339 340 339 340 339 337 337 336 337 338 338 337 337 338 338 339 337 336 337 337 336 336 332 333 339 335 337 337 337 340 340 339 338 337 335 335 335 336 336 335 336 333 332 334 335 337 337 337 337 337 337 337 336 334 332 331 329 329 330 331 330 330 331 331 332 324 321 321 323 324 329 331 332 336 338 337 337 337 338 338 337 336 334 336
339 341 340 339 338 337 337 337 337 337 336 336 337 337 337 335 336 335 335 336 337 336 336 336 336 339 337 339 340 338 337 336 337 335 334 331 332 334 333 333 334 333 336 333 334 335 335 335 336 335 335 335 336 336 333 332 332 332 331 330 328 328 328 327 327 327 327 326 322 322 323 322 321 325 332 334 337 338 337 338 337 336 335 335 336
337 337 337 338 337 337 338 337 336 336 337 337 336 334 333 333 333 336 335 332 334 335 334 334 339 338 338 336 336 337 336 335 337 336 331 330 331 333 332 331 332 332 331 330 330 331 332 332 333 334 334 334 333 333 333 333 332 332 332 330 329 328 326 325 324 325 324 322 321 321 322 323 323 322 326 331 334 336 336 337 337 336 335 334 335
Wind_Speed
13 16 12 16 17 18 17 18 19 18 18 18 18 18 18 17 16 15 15 14 13 12 11 11 10 10 9 10 10 10 10 10 10 11 11 11 12 12 11 12 12 13 13 14 14 15 14 14 14 13 14 13 13 13 13 13 13 12 12 11 11 10 9 9 10 11 11 12 13 13 12 11 10 10 10 11 13 14 17 8 6 11 7 9 13
15 14 12 13 17 18 18 19 19 19 18 19 19 18 18 17 16 15 14 13 12 12 12 11 10 10 10 10 10 10 11 10 10 11 11 12 12 12 12 12 11 12 12 13 14 14 14 13 13 13 13 13 13 13 12 12 11 12 11 11 10 8 6 7 8 9 11 12 13 14 13 12 11 10 11 12 13 15 16 16 15 8 4 11 12
16 14 11 14 18 19 18 19 20 19 18 19 19 18 18 17 16 15 14 13 12 11 11 10 10 10 11 11 11 11 11 11 11 11 11 11 12 12 12 12 11 12 12 13 13 13 13 13 13 13 12 12 12 12 11 11 10 10 10 9 8 5 3 5 7 8 9 10 13 14 14 13 11 11 11 12 14 15 16 15 14 12 8 12 11
17 12 12 15 17 18 18 19 19 19 17 17 18 18 17 17 16 15 14 13 11 11 11 12 11 11 11 11 11 11 11 11 11 11 11 11 12 12 11 11 11 12 12 12 12 12 12 13 12 12 12 12 12 11 11 10 10 9 8 7 5 2 2 1 3 5 7 9 12 12 6 6 8 11 11 12 13 14 14 14 14 12 12 12 13
18 13 12 13 14 16 18 18 19 19 18 16 18 18 17 16 15 14 14 12 12 12 12 11 11 11 12 12 12 12 12 12 11 12 12 11 11 12 11 11 11 11 12 12 12 11 12 12 11 11 11 11 10 10 9 9 8 7 7 6 2 3 4 2 1 1 4 4 10 1 7 8 5 10 10 11 11 11 12 12 11 11 12 13 13
16 13 12 12 13 15 18 18 19 20 19 18 19 19 17 16 15 14 14 13 12 12 11 12 12 11 12 12 13 13 12 12 11 11 11 10 8 10 11 11 11 11 11 12 12 11 10 11 10 10 10 9 9 9 8 7 7 6 6 4 1 4 6 7 4 4 4 7 7 4 4 7 6 7 11 10 10 10 11 11 11 11 10 12 13
18 13 12 12 11 14 18 18 18 19 18 18 18 19 17 15 15 14 14 14 12 12 12 12 12 13 13 13 13 13 12 12 11 11 11 9 8 9 11 11 11 10 10 11 11 10 9 9 9 9 8 8 8 7 6 6 5 5 4 2 2 6 8 8 8 7 5 6 4 5 4 7 7 6 10 9 10 9 11 11 10 9 10 12 13
14 13 12 11 11 16 18 18 18 18 19 18 17 17 17 16 15 15 14 13 13 13 13 13 12 14 13 13 13 13 13 12 12 11 10 9 8 8 9 9 9 11 11 11 10 9 8 8 8 8 7 7 6 6 4 3 4 3 2 2 5 7 9 10 10 10 11 6 8 5 7 8 7 6 8 9 10 9 10 12 12 12 12 13 12
14 15 13 12 14 20 18 18 18 19 18 17 16 16 16 16 15 15 15 14 13 13 12 13 13 14 14 13 13 13 13 12 11 11 11 11 11 9 8 9 10 11 11 10 9 8 8 8 7 7 6 7 6 6 5 2 2 1 1 3 5 8 9 11 11 13 9 5 8 4 10 8 7 6 9 11 11 11 10 11 11 13 13 13 12
15 14 13 11 13 19 19 19 18 18 18 17 16 16 16 16 15 14 14 14 13 13 13 13 14 14 13 14 13 13 12 11 11 10 10 10 10 9 9 8 8 9 10 10 9 8 7 7 6 6 6 7 7 6 5 3 2 1 2 4 6 8 9 10 12 11 7 0 9 11 9 12 7 6 9 11 12 12 13 14 11 11 9 11 11
17 14 13 13 16 16 17 18 18 18 17 17 17 16 15 15 15 14 14 14 13 13 13 13 14 14 13 13 12 12 11 11 10 10 9 9 9 8 8 7 7 8 9 8 8 8 7 6 5 5 6 6 6 6 5 4 2 1 2 5 7 7 10 10 11 6 6 8 6 7 12 14 6 5 9 10 11 12 13 13 12 10 9 9 9
17 15 13 12 17 15 16 18 18 18 18 17 16 15 14 14 15 14 14 13 14 14 13 13 13 13 14 13 12 11 11 11 10 10 9 8 7 7 7 7 6 6 7 6 8 7 6 5 4 5 5 5 5 5 5 3 2 1 4 6 7 8 10 11 9 6 6 9 11 9 9 10 7 7 10 9 9 10 11 11 10 10 10 9 9
18 16 14 13 14 15 15 17 18 18 17 16 15 14 13 14 14 14 13 14 13 14 14 13 13 13 13 12 12 11 10 10 10 9 9 8 7 6 6 6 6 6 6 5 7 6 4 5 4 4 5 5 5 4 4 3 1 3 5 7 8 9 10 12 8 9 2 4 9 11 9 7 5 8 8 8 9 9 10 10 10 9 9 10 9
17 16 15 13 13 16 15 16 16 17 16 14 13 12 13 13 14 13 13 13 14 14 14 14 13 13 12 12 11 11 10 10 10 9 9 8 7 6 5 6 5 4 5 4 4 4 3 3 3 4 4 6 5 5 3 3 3 5 6 8 9 10 11 10 9 7 6 8 9 11 9 5 5 8 7 8 8 8 8 9 9 9 9 8 8
18 17 15 13 14 14 17 15 15 15 14 13 12 11 11 12 13 13 13 14 15 15 15 14 13 13 12 12 12 11 10 10 9 9 9 8 7 6 5 4 4 3 3 3 3 3 2 3 3 3 4 5 5 4 3 3 4 5 8 9 9 11 11 7 7 4 4 8 7 10 9 5 5 7 7 8 8 8 7 8 8 8 8 7 7
19 18 17 14 14 14 13 16 14 14 13 13 11 11 11 13 14 13 14 13 15 15 14 14 14 13 13 11 11 10 10 10 9 9 8 8 7 6 6 4 4 3 2 2 2 2 1 1 1 3 4 4 4 4 3 3 3 6 8 9 11 11 12 8 6 8 4 6 9 9 8 6 9 8 7 7 7 7 7 7 7 7 7 7 8
18 18 17 15 15 13 12 13 13 14 12 12 12 12 11 12 14 14 15 15 16 15 15 14 13 13 12 11 11 10 10 10 10 9 9 8 7 6 5 5 4 4 3 3 3 2 1 0 2 4 3 4 4 3 3 3 3 6 7 9 11 12 11 9 6 8 4 4 8 8 6 6 8 9 7 6 6 7 6 7 5 6 6 6 7
18 17 16 16 14 13 12 13 13 12 11 11 13 12 12 13 13 14 15 15 15 15 15 13 13 12 11 11 11 11 11 10 10 8 8 7 7 6 5 4 4 3 4 4 3 3 1 2 3 4 4 4 3 3 3 3 4 6 8 10 11 11 11 11 4 6 1 3 8 8 6 8 9 9 7 6 5 5 4 5 5 4 4 4 4
16 16 16 15 14 13 13 13 12 12 11 8 8 11 14 13 14 14 15 15 14 15 15 14 13 12 12 11 11 12 12 11 10 9 8 7 7 6 5 4 4 4 3 3 3 2 3 3 4 4 4 4 4 4 4 4 5 6 8 9 11 11 13 8 6 6 2 7 7 7 5 10 10 8 7 5 4 4 4 4 3 2 2 2 2
14 15 14 14 14 14 13 12 12 12 10 8 9 10 12 13 13 15 16 15 15 15 15 14 12 12 13 12 12 9 9 9 12 9 9 7 5 4 6 4 3 3 3 4 4 4 4 4 3 3 4 5 5 5 5 5 5 6 9 10 10 11 7 6 7 8 4 7 8 5 10 11 9 8 5 5 3 4 4 2 2 2 2 2 2
10 14 14 14 15 14 15 11 12 13 11 9 9 9 10 13 12 14 15 15 15 16 15 14 12 12 11 10 8 6 6 5 7 7 10 6 7 8 5 5 4 4 3 4 4 4 4 4 4 4 5 6 6 6 6 6 7 7 8 10 10 6 6 7 8 4 2 8 7 7 13 12 9 6 6 5 4 5 3 2 3 1 1 2 1
12 11 13 15 14 13 14 13 11 13 12 8 8 7 9 10 11 10 10 12 13 14 12 9 11 7 10 8 6 5 5 5 6 9 5 7 6 7 5 4 4 4 4 4 4 4 5 5 5 5 6 7 7 4 5 7 9 8 8 9 6 5 6 7 7 3 0 7 6 9 14 13 10 7 5 5 3 6 6 3 4 2 2 1 2
11 10 10 14 12 11 13 14 13 12 12 10 8 7 11 7 10 9 8 11 12 12 9 9 8 8 8 7 5 4 6 6 5 7 6 9 8 9 8 6 5 6 6 6 5 6 6 6 6 7 7 8 5 4 5 4 5 9 7 5 4 5 7 9 4 4 2 7 7 12 12 13 11 7 4 5 2 7 7 6 4 2 2 1 3
10 10 11 11 12 10 13 13 13 13 10 8 8 8 8 7 7 7 8 7 8 8 8 8 7 8 8 6 6 7 4 5 7 8 11 6 6 8 8 7 6 6 7 5 7 7 9 8 8 7 6 5 4 5 7 4 5 4 3 4 5 7 7 6 3 5 0 8 7 13 12 12 11 8 6 5 4 6 6 6 2 2 0 3 1
9 9 10 10 10 9 11 11 12 12 11 9 9 9 8 8 8 7 7 7 7 7 7 7 7 7 7 6 7 6 5 5 5 5 4 6 6 5 4 3 3 4 7 5 4 5 6 5 4 5 4 5 6 5 6 4 4 5 5 5 6 7 6 5 3 3 4 5 7 12 12 12 12 8 6 6 6 5 6 2 3 4 5 4 2
10 10 11 11 9 10 10 10 11 10 10 9 9 9 10 8 7 7 7 6 7 8 7 7 7 7 4 6 3 3 1 4 4 3 4 4 7 6 6 6 7 6 7 6 5 4 6 6 6 6 6 5 6 6 7 4 6 5 5 6 5 4 6 3 3 3 4 5 8 14 12 12 13 11 8 8 7 7 6 4 5 4 7 4 2
10 10 11 10 10 10 10 12 10 9 10 10 9 9 8 7 7 8 8 8 6 7 7 6 4 5 2 3 6 3 2 2 6 4 5 3 3 2 4 6 7 6 7 6 7 7 6 7 7 7 6 7 9 7 4 4 3 5 6 7 6 6 4 5 5 3 0 6 5 13 11 11 12 11 10 9 9 7 7 5 5 4 8 6 3
10 11 11 10 10 13 11 12 9 9 8 7 8 8 7 8 8 10 8 7 7 6 5 5 5 5 4 3 4 3 4 3 3 2 1 4 4 3 3 5 4 3 2 5 4 1 2 3 2 4 7 6 4 3 3 4 4 4 4 4 5 3 3 3 4 2 2 6 5 9 10 11 10 12 11 10 8 8 8 7 8 6 9 6 4
11 11 11 11 11 11 11 11 9 9 7 7 7 6 6 6 6 7 5 7 6 5 4 5 6 5 4 2 3 2 4 2 2 3 5 3 1 2 2 1 2 2 4 3 3 1 2 3 4 5 3 3 3 4 2 3 3 4 4 6 4 4 5 2 3 3 3 3 4 6 10 10 10 10 11 11 10 10 9 10 10 6 6 8 6
12 11 11 10 10 11 11 11 10 9 8 8 6 6 3 6 5 6 3 6 3 6 3 4 3 5 4 2 4 3 2 3 5 3 3 1 0 1 1 1 2 4 3 4 3 0 1 1 3 4 5 3 3 5 2 4 3 4 6 6 1 2 2 3 3 3 5 5 2 5 11 11 10 10 10 11 11 11 11 11 10 8 7 11 9
12 12 11 10 9 10 10 10 9 8 8 7 5 5 4 4 4 4 2 4 2 2 4 4 3 3 4 3 4 2 2 4 3 3 2 2 0 1 2 2 4 4 4 1 1 3 3 2 3 3 3 1 3 4 4 4 4 3 5 7 2 2 4 6 5 4 1 2 4 3 5 8 9 10 11 11 12 12 13 12 11 14 8 9 9
11 11 9 10 10 10 11 10 8 8 7 7 3 6 4 3 5 3 2 3 3 2 4 4 3 3 5 4 4 3 4 3 3 3 3 1 1 1 2 3 2 2 3 0 3 2 2 1 2 2 2 1 3 2 3 4 4 5 4 5 2 2 1 2 3 2 2 3 3 0 1 5 10 11 12 12 12 12 14 14 15 16 9 10 10
8 11 11 11 12 10 10 9 9 7 7 5 4 5 5 6 5 4 3 3 3 2 2 4 3 3 6 5 4 4 4 4 3 3 3 2 4 3 3 4 4 4 1 3 2 2 2 2 2 2 2 2 2 3 3 4 3 4 4 6 3 1 2 1 2 3 4 2 2 3 2 2 4 10 11 12 12 13 13 15 13 11 10 12 10
10 10 12 12 10 8 7 8 9 7 7 4 7 2 3 5 4 2 3 2 2 2 3 4 3 4 5 4 4 4 5 4 4 3 2 2 2 2 4 5 5 5 2 1 2 1 3 2 2 3 3 2 2 3 4 3 4 3 3 4 3 1 0 2 3 3 2 2 4 4 4 2 4 4 7 12 13 13 13 13 12 11 12 14 11
10 11 13 13 11 9 8 8 9 8 5 3 6 5 2 4 2 3 3 4 2 4 3 2 2 5 4 3 3 3 5 5 5 5 4 1 2 1 4 6 8 6 2 3 2 4 3 3 0 2 0 2 2 4 4 3 4 4 3 3 4 4 2 3 2 1 3 4 5 7 6 5 4 5 5 6 10 14 13 14 13 12 12 12 12
11 11 11 11 12 10 9 8 8 6 3 4 4 5 3 2 2 3 5 2 2 3 3 1 1 3 2 4 3 2 3 4 4 4 5 7 6 8 9 8 6 1 3 2 2 3 3 1 2 2 1 2 3 4 3 3 2 3 2 4 4 2 3 2 2 2 3 4 3 2 3 4 6 4 4 4 4 8 15 15 13 12 13 14 14
12 13 13 12 10 9 8 8 6 5 4 4 3 5 4 1 2 5 4 1 4 6 6 4 1 1 3 2 3 3 3 4 4 4 4 4 5 4 2 2 2 3 1 2 3 3 2 1 1 2 2 2 3 3 3 3 3 3 3 3 3 3 3 4 3 4 3 3 3 3 7 6 4 5 5 7 6 5 12 16 15 14 13 13 14
10 11 11 10 11 9 8 9 6 4 5 4 2 6 2 1 4 8 12 12 9 7 7 8 11 9 4 1 2 3 3 2 2 2 2 2 3 4 5 3 2 1 2 2 3 2 0 0 1 1 2 2 3 3 3 3 2 3 3 4 4 4 3 3 3 4 4 4 3 4 5 5 6 6 7 5 3 5 3 10 16 15 14 13 13
9 11 11 11 10 9 8 9 6 6 6 4 3 4 2 5 10 7 4 3 4 2 4 5 6 5 8 8 5 2 2 1 2 3 3 3 4 1 1 2 1 2 2 3 2 1 1 0 1 2 1 2 3 3 3 2 3 3 3 4 4 5 4 4 4 3 4 4 4 4 3 6 7 7 6 7 5 5 5 3 6 7 9 15 13
8 9 10 11 10 10 9 8 8 6 7 5 4 4 6 8 4 4 3 2 4 2 1 4 4 4 1 3 5 5 3 1 3 1 2 1 1 1 2 2 1 1 1 1 1 2 2 1 1 1 2 2 3 3 3 3 3 3 5 6 6 6 5 5 5 5 3 3 3 3 3 4 4 7 6 9 7 5 7 5 5 7 7 11 16
8 9 9 9 10 10 10 10 8 7 7 7 7 5 7 6 3 2 3 5 3 1 1 1 4 5 5 3 2 3 4 2 2 1 2 1 0 1 1 0 0 0 0 1 1 1 1 1 1 1 2 3 2 2 2 2 3 5 5 5 5 6 8 8 7 5 4 3 4 4 4 4 3 3 6 7 7 5 6 5 5 6 7 7 10
9 8 9 9 9 12 10 10 7 4 5 3 7 6 4 4 5 5 4 5 2 3 2 1 3 2 4 6 3 2 3 3 3 3 1 1 1 0 0 1 0 0 1 1 2 1 2 2 1 2 1 2 2 1 2 2 2 3 6 6 6 7 7 7 7 4 4 5 4 4 4 4 3 3 2 6 3 5 5 6 6 6 6 7 6
8 9 10 9 9 9 10 10 8 9 5 7 8 7 6 6 6 4 5 4 4 2 3 2 2 1 6 6 4 4 3 5 4 2 0 0 1 0 1 2 3 3 3 3 2 2 2 2 2 2 3 2 3 2 1 1 2 3 5 6 4 6 4 2 1 2 3 4 4 4 4 3 3 3 4 3 6 5 5 5 7 7 7 7 5
7 8 10 10 8 9 11 11 10 7 8 7 8 7 7 6 6 5 5 3 3 1 2 4 2 3 4 8 6 6 2 3 7 4 3 1 1 3 2 2 2 2 2 2 2 2 1 0 1 3 2 4 2 3 2 1 2 2 4 3 7 5 6 1 4 2 5 6 5 6 4 4 4 4 4 5 5 7 7 5 7 6 7 7 6
5 8 9 9 7 11 10 7 8 9 7 9 9 9 8 7 6 6 6 5 4 3 2 2 2 1 4 9 8 4 7 6 7 4 1 2 4 2 3 2 2 2 3 4 4 4 4 3 3 2 2 2 4 3 3 3 3 0 2 2 3 2 2 5 8 8 2 1 4 6 5 4 4 4 4 5 4 4 3 7 8 7 7 7 7
7 7 8 9 10 10 10 9 9 8 8 9 9 8 7 8 8 7 6 4 3 2 2 4 2 0 2 4 9 7 8 4 5 4 4 3 2 2 3 3 3 3 2 2 2 3 3 3 2 3 3 3 3 4 3 3 3 3 3 6 3 4 6 5 5 5 5 5 6 2 4 5 6 6 5 5 5 5 5 4 6 6 7 7 7
9 8 8 9 12 9 9 10 8 8 7 7 7 5 5 4 5 6 6 5 5 3 3 1 1 1 2 2 3 5 6 2 2 1 2 5 4 4 3 4 4 3 1 2 2 2 2 3 4 4 4 4 3 3 4 5 5 3 3 2 3 4 5 3 4 5 9 5 2 4 4 4 6 5 5 6 7 6 5 5 5 7 6 7 6
11 11 9 9 10 9 10 10 8 8 8 7 7 6 6 5 5 6 5 5 5 5 5 3 4 2 1 2 1 5 6 3 5 6 7 5 5 5 5 4 4 5 5 3 3 3 5 4 3 3 2 2 3 4 4 4 5 5 4 5 4 4 4 5 5 4 5 7 11 4 3 6 4 4 6 7 7 7 7 7 6 6 6 5 6
11 11 10 10 11 11 11 10 11 10 8 8 7 7 5 5 4 6 6 4 5 5 6 5 3 5 3 2 6 7 4 6 6 6 6 7 6 6 5 5 5 4 6 5 5 5 3 3 4 4 4 4 3 3 3 4 4 5 6 5 5 5 5 5 5 4 3 5 8 7 8 4 4 6 5 7 7 7 7 8 7 7 5 6 6
10 11 11 11 11 10 11 12 12 8 9 9 7 7 5 3 3 5 6 6 5 5 3 4 5 6 6 5 2 4 4 5 5 6 5 7 7 5 5 6 5 5 4 4 6 7 7 6 6 5 5 4 3 3 4 4 4 5 4 6 6 6 5 4 3 5 4 4 7 9 7 8 8 5 4 5 7 7 7 6 6 6 7 7 7
8 9 10 11 11 10 11 12 11 10 10 9 8 7 5 3 2 3 5 6 6 4 3 2 2 3 2 3 4 3 3 4 3 4 5 6 5 5 5 5 5 6 7 7 6 6 6 6 6 6 5 6 5 5 5 4 5 5 4 5 6 6 6 6 6 5 5 6 7 8 8 7 8 9 6 5 5 7 7 6 7 7 8 8 7
Wind_Direction
118 122 123 125 124 119 119 118 118 116 117 114 112 111 107 108 106 105 103 105 105 102 101 99 93 93 93 90 89 91 88 87 90 88 89 95 90 89 93 92 91 91 94 91 92 90 86 83 83 80 76 74 73 73 72 74 72 74 75 78 79 82 89 94 99 99 95 95 92 88 86 79 74 72 65 60 53 44 49 99 91 64 61 56 57
125 117 126 127 124 122 120 119 119 120 119 117 115 113 111 110 109 109 108 108 108 108 104 101 101 101 100 97 95 96 96 93 90 91 90 92 95 95 98 97 92 94 95 95 92 90 89 87 85 81 77 77 77 76 75 76 77 79 79 78 77 78 86 93 97 105 105 103 101 95 86 79 72 65 62 62 58 54 56 60 64 69 70 67 59
117 120 126 129 126 123 121 122 120 121 122 119 116 115 114 112 111 110 112 111 112 110 107 106 110 108 106 101 101 99 99 97 93 89 92 99 102 105 103 102 100 102 98 97 93 92 91 91 87 83 80 78 78 76 75 77 79 76 74 71 67 62 74 97 101 112 120 119 114 102 90 79 72 65 63 60 63 63 64 65 69 69 63 62 63
117 119 126 129 127 124 123 123 122 121 121 121 118 116 115 114 112 113 114 114 111 110 108 113 112 113 107 106 104 102 100 98 95 96 97 99 102 102 102 103 101 98 98 97 95 94 94 93 89 85 82 78 75 76 76 77 78 79 76 73 68 349 294 92 104 127 133 139 131 126 102 89 70 68 64 63 64 67 68 71 72 74 73 67 62
118 122 127 130 128 126 124 123 121 118 122 121 120 118 117 116 117 117 114 112 111 111 112 113 115 114 112 108 108 105 103 100 102 102 103 107 109 109 104 98 100 100 98 96 95 96 96 93 89 86 84 80 75 75 76 78 76 78 80 78 48 293 299 310 260 241 149 185 190 155 99 92 81 70 70 68 67 67 73 77 79 76 75 76 69
119 129 131 130 129 129 125 124 123 124 123 126 124 122 121 120 121 120 119 114 116 113 113 116 118 115 112 109 107 105 102 102 104 104 105 106 104 103 102 101 100 99 97 96 94 94 95 93 91 88 82 78 75 73 74 75 78 76 77 79 335 297 288 285 258 240 243 214 234 249 119 96 86 75 73 72 74 78 79 75 69 69 82 74 67
125 128 132 128 130 132 128 126 126 125 124 125 128 124 123 123 124 122 121 122 118 119 118 119 116 113 110 110 108 107 106 106 106 106 105 98 93 96 103 102 98 96 96 99 98 93 87 89 87 80 74 69 67 68 67 74 78 80 84 93 266 256 271 276 290 289 272 263 222 225 115 101 94 86 79 76 74 72 80 76 70 76 75 73 72
128 129 128 128 132 135 130 129 129 126 128 128 128 126 124 125 127 126 124 124 124 122 121 120 116 114 112 111 112 109 109 105 105 96 85 88 87 85 91 96 94 96 97 95 98 98 99 91 83 78 72 61 53 50 49 63 88 100 116 207 257 279 288 303 312 305 294 264 241 173 103 101 95 89 83 76 68 73 78 81 69 61 61 56 60
129 128 125 126 134 137 132 130 130 130 128 128 127 129 129 130 129 129 129 127 127 125 122 120 121 117 114 114 111 109 108 107 103 91 85 80 76 77 82 88 88 90 96 103 104 102 90 82 76 70 61 48 41 43 46 65 126 135 218 263 272 288 304 308 309 314 306 259 53 47 105 103 99 88 76 75 73 72 93 76 71 65 59 60 61
128 119 118 125 136 138 134 132 131 130 130 131 133 133 133 131 132 132 131 130 127 125 124 125 121 119 119 117 112 110 108 102 98 95 90 84 81 76 72 83 101 105 109 105 105 105 99 81 70 58 48 43 40 35 40 68 107 176 251 289 290 290 302 308 310 305 288 303 82 63 69 83 84 84 80 76 74 73 72 71 70 67 60 59 60
123 118 120 128 135 137 134 131 132 132 133 134 137 137 133 134 134 134 131 130 130 127 124 125 124 123 120 116 114 110 107 106 104 98 93 91 85 81 77 77 93 114 118 113 109 94 83 81 70 55 41 38 43 42 47 83 110 209 283 279 303 304 305 311 318 299 290 94 105 102 83 86 83 92 87 83 77 75 72 69 66 62 59 57 59
121 116 119 122 133 136 133 132 131 134 134 135 135 135 135 137 138 135 132 130 132 129 127 125 128 124 121 117 115 114 111 109 107 106 98 94 94 92 93 80 71 94 94 83 112 101 82 76 68 52 31 38 36 47 59 80 90 281 296 299 297 310 316 311 308 292 271 79 75 74 75 80 78 73 85 81 74 68 66 67 63 61 60 58 59
120 115 116 127 134 135 133 132 134 135 136 136 136 137 137 138 137 136 134 132 134 133 129 125 128 124 122 120 119 117 116 112 111 111 107 102 104 105 101 95 82 81 101 87 101 86 85 74 57 36 24 25 39 39 43 53 14 326 306 305 312 314 313 312 293 291 185 132 104 92 89 84 85 82 88 88 80 70 67 67 65 65 62 62 62
111 115 122 130 136 138 133 132 135 135 136 136 136 136 138 138 136 135 135 138 138 134 127 129 129 125 122 122 121 120 119 117 115 114 117 111 106 109 112 105 99 98 89 83 89 93 94 92 56 28 10 20 13 27 27 13 345 315 316 317 315 315 316 309 309 270 51 77 93 93 92 94 95 104 87 82 79 76 74 69 66 59 58 64 62
119 121 123 128 136 139 136 133 134 135 132 131 132 133 136 136 136 136 141 141 136 129 130 133 129 125 126 126 125 126 125 123 123 122 120 124 120 116 118 125 118 105 112 98 119 104 77 101 51 13 5 8 11 6 13 357 329 318 309 314 311 311 315 319 313 306 145 96 98 100 99 104 95 93 89 82 82 91 86 79 75 68 65 61 51
121 122 124 131 137 139 138 136 131 131 128 126 127 128 127 137 140 138 142 137 132 132 135 133 129 129 130 130 132 131 127 127 124 125 126 127 126 127 127 134 143 140 147 156 126 127 103 58 36 351 340 355 359 357 345 341 321 311 313 310 308 307 311 317 302 293 89 128 100 100 98 101 115 110 102 96 98 94 93 83 71 63 61 65 60
123 125 128 134 137 141 139 141 136 127 123 121 123 122 127 137 139 138 139 133 134 137 137 135 131 133 135 136 134 134 133 130 131 131 131 128 129 125 132 139 151 163 170 186 163 155 175 338 325 306 316 338 339 341 327 314 298 303 301 299 300 301 309 321 312 290 29 69 109 112 117 114 110 112 110 108 100 100 90 79 72 68 73 75 75
129 131 130 136 142 140 141 139 140 139 135 121 122 125 134 138 138 140 139 136 138 140 139 136 135 138 139 140 140 139 140 138 136 133 131 124 126 131 124 136 146 165 172 172 178 171 176 252 291 285 292 306 315 315 320 301 294 292 296 296 301 309 313 316 290 289 117 89 94 95 103 122 123 119 121 119 113 102 90 76 68 77 72 71 69
132 130 136 140 140 142 136 140 144 143 141 138 136 140 142 141 142 142 139 138 140 143 140 140 142 143 147 150 150 150 149 147 141 134 127 136 135 134 138 136 142 151 172 182 188 206 208 249 260 273 279 288 292 296 287 291 282 288 289 294 300 306 315 313 288 284 140 78 102 106 114 134 131 128 128 128 117 125 91 80 76 59 55 37 54
135 140 141 141 142 137 141 147 145 143 146 148 145 142 144 145 147 145 143 142 144 145 143 145 149 153 161 163 158 152 148 147 147 143 142 137 164 137 138 144 140 146 163 174 185 203 216 227 248 267 278 279 281 284 276 268 268 264 275 286 294 308 304 285 289 272 114 111 104 109 134 135 139 139 139 128 163 105 116 117 76 80 65 59 27
141 149 150 146 140 143 148 145 143 145 146 147 145 141 145 147 144 145 145 145 147 148 149 155 161 168 167 162 160 156 160 153 159 148 150 146 114 120 128 139 151 157 168 187 195 203 213 225 237 254 269 274 276 279 269 257 251 255 268 279 294 302 287 285 282 292 86 108 116 126 140 136 140 155 147 156 176 149 125 164 169 60 8 38 31
150 156 156 143 142 151 150 142 145 150 145 144 148 145 149 155 150 147 148 150 152 155 159 166 175 169 171 164 177 187 166 163 185 150 156 130 131 131 139 147 153 158 182 185 202 210 217 225 236 245 259 268 272 274 241 227 229 232 246 268 286 277 273 278 273 308 9 103 115 140 145 141 147 166 175 172 199 158 155 171 202 214 56 343 341
152 158 145 133 147 158 147 147 151 145 148 147 145 152 160 162 153 160 154 159 166 164 171 176 182 175 178 176 189 199 186 177 166 166 142 152 143 158 160 165 173 177 186 192 196 211 214 226 231 238 248 264 269 243 248 191 202 216 230 249 256 261 264 261 284 302 66 129 119 149 150 146 150 167 170 176 172 169 177 178 201 201 199 261 18
157 154 134 139 152 166 146 150 147 145 149 147 144 151 169 162 158 166 159 172 171 181 178 188 183 182 182 177 192 208 163 102 116 131 131 133 151 163 173 176 186 198 200 200 206 214 214 221 229 235 248 250 238 236 240 203 178 171 194 226 238 249 258 259 229 247 238 120 131 154 156 151 152 164 186 180 201 183 195 206 123 186 198 91 129
153 138 138 145 159 144 139 140 143 152 151 143 150 163 169 167 167 165 168 173 175 195 177 202 176 201 171 182 196 201 145 141 148 158 177 160 151 175 176 182 187 211 205 228 196 205 203 214 225 228 241 237 243 242 244 213 178 175 192 205 230 244 258 264 260 288 64 125 138 160 157 159 162 173 193 193 193 171 200 206 225 239 145 164 210
142 146 145 148 151 139 140 142 150 155 146 150 160 169 166 167 171 158 168 177 180 188 182 196 182 192 176 192 141 104 8 139 163 168 193 192 159 175 182 184 186 204 185 230 205 198 193 207 202 203 218 236 240 248 249 224 177 189 194 202 225 250 259 285 276 228 117 136 158 160 165 168 167 173 197 196 199 206 219 221 229 237 142 163 195
156 148 141 146 147 134 144 148 159 154 154 163 164 163 170 168 171 152 178 178 184 183 193 182 162 162 203 176 115 124 195 222 167 182 196 177 184 135 167 202 182 194 187 213 229 180 197 209 201 198 206 220 231 234 248 262 216 201 201 206 209 225 242 261 279 310 129 122 152 164 175 171 167 184 193 198 205 204 193 205 204 244 158 161 197
154 145 144 146 151 147 155 153 160 155 158 169 166 166 188 164 171 165 182 174 177 185 186 172 143 151 213 108 106 126 204 229 108 164 29 52 42 33 359 350 14 351 219 225 271 279 250 258 250 213 209 221 244 233 244 285 276 235 245 258 195 220 273 273 269 308 7 148 151 176 181 180 176 183 193 198 210 204 193 196 215 229 169 173 183
144 147 144 148 151 149 158 156 155 157 159 162 183 171 193 154 145 168 193 159 184 182 169 167 145 149 179 119 108 210 196 204 134 74 60 36 13 68 59 324 308 310 294 330 292 276 311 332 340 317 319 312 295 287 294 313 301 305 273 222 232 205 197 245 337 339 296 116 161 175 189 187 185 191 196 199 210 208 198 201 225 220 195 178 183
143 140 142 148 153 150 156 159 156 157 157 169 202 173 181 138 136 160 220 148 180 165 146 142 129 132 139 142 149 218 242 78 79 91 112 146 137 108 97 250 281 265 248 230 272 306 323 333 314 306 306 320 309 312 322 239 284 290 290 301 266 299 275 145 204 272 358 316 165 157 189 189 189 198 203 203 207 206 202 214 226 222 221 186 186
139 143 146 151 148 155 155 155 154 152 160 184 204 141 129 137 134 148 184 155 155 151 150 126 109 149 139 144 130 219 100 104 117 125 116 112 308 330 227 193 224 225 252 277 333 268 229 224 248 270 248 313 326 307 313 324 310 308 309 291 29 39 18 2 356 57 98 309 339 137 193 204 199 201 205 209 206 209 209 211 214 231 214 225 222
139 141 142 143 152 158 151 154 154 152 167 192 175 122 151 127 127 148 197 177 158 181 142 114 170 179 132 130 163 185 108 126 125 143 133 132 228 253 313 294 274 239 253 281 226 260 282 210 241 245 278 269 295 302 309 302 301 283 291 295 336 20 56 125 202 140 200 219 247 192 175 193 214 213 212 210 210 213 213 215 215 235 189 218 226
143 146 147 149 157 153 153 153 148 153 179 193 137 139 145 122 147 197 142 195 150 110 138 150 184 167 131 151 171 152 139 131 157 164 144 146 209 173 231 255 279 276 218 224 275 282 277 291 267 288 324 324 291 266 275 259 265 285 294 306 287 199 159 139 171 189 213 230 278 260 236 209 200 220 224 219 216 215 218 221 230 251 211 221 220
156 149 153 156 154 146 148 148 148 169 178 200 125 126 115 125 163 164 154 141 117 133 203 158 193 112 134 154 150 162 135 152 154 144 118 194 300 344 335 312 287 260 219 264 254 295 267 267 273 266 248 249 248 257 240 259 257 260 265 272 296 18 292 199 238 233 172 175 217 234 255 322 253 206 211 225 223 219 221 227 234 237 219 223 220
153 150 156 151 143 147 149 153 152 161 187 143 130 125 124 138 158 155 150 111 176 205 179 172 157 130 137 149 157 167 138 162 165 172 154 18 342 5 251 251 253 240 200 216 197 233 237 241 296 304 349 241 261 285 278 255 251 259 285 329 306 295 296 272 278 281 177 222 218 209 173 222 235 225 199 208 221 223 223 223 227 229 223 229 218
142 142 145 148 148 147 149 142 141 157 158 100 93 104 87 89 186 134 101 153 207 227 122 155 101 96 132 142 160 156 159 169 172 183 162 157 201 210 219 202 206 151 236 217 214 238 230 222 187 231 236 277 276 264 244 266 301 299 247 235 253 250 252 235 232 246 239 209 219 209 99 149 238 227 231 234 200 212 219 222 224 227 224 223 224
148 151 147 150 142 133 133 123 136 151 123 105 92 100 92 266 232 92 101 248 351 1 10 22 340 137 141 156 150 166 179 190 183 192 186 178 202 176 208 212 184 218 196 207 235 227 236 197 204 222 216 245 272 297 299 295 268 267 272 273 256 248 260 249 250 240 238 250 248 196 173 191 211 243 208 227 227 224 211 215 218 219 226 224 225
147 145 144 140 135 136 133 128 140 125 102 115 121 109 154 191 54 42 33 34 20 17 358 347 339 340 325 101 146 170 217 166 204 188 174 210 191 202 186 193 209 159 212 226 240 244 192 142 303 288 304 321 295 283 304 295 301 305 303 286 273 260 252 261 253 231 218 252 251 239 182 179 176 223 239 231 203 244 236 210 215 219 221 226 227
147 152 149 137 138 138 126 126 124 118 108 127 106 118 134 86 51 51 74 115 120 35 51 21 331 324 328 338 317 265 206 173 210 204 176 210 228 197 197 144 195 187 207 239 243 217 152 168 231 284 278 269 288 300 291 297 291 280 278 283 291 277 260 239 240 252 234 227 227 239 202 201 180 186 201 255 216 211 238 185 202 212 221 224 228
146 151 146 135 136 129 127 130 127 129 119 142 138 161 103 71 107 132 140 85 65 49 196 179 199 261 261 301 299 324 322 226 229 229 183 253 278 271 115 200 180 211 216 263 335 345 3 348 320 324 316 290 282 287 294 299 300 292 282 268 256 256 252 245 245 239 246 257 258 255 252 257 202 155 172 214 224 193 211 211 185 206 213 217 221
152 147 141 138 136 131 139 135 128 135 156 160 165 149 120 134 118 92 69 81 47 318 300 353 31 327 316 270 301 332 302 306 295 213 254 202 221 285 114 276 230 257 86 278 282 296 305 324 289 233 273 293 282 275 276 290 303 293 269 268 273 244 239 236 234 233 230 239 239 239 248 239 247 246 160 188 194 192 203 212 207 200 207 212 209
153 149 144 139 142 133 137 124 101 139 171 130 106 90 86 108 122 162 116 118 146 157 155 206 102 288 289 292 307 259 280 279 261 249 189 105 250 349 81 269 105 254 290 305 301 304 302 287 293 303 258 280 283 286 313 1 289 309 327 320 297 274 249 225 221 225 231 237 234 232 228 236 240 257 212 175 198 191 198 206 220 213 205 212 198
151 149 144 141 142 140 119 110 173 176 111 80 87 100 118 133 140 135 118 126 199 169 145 107 93 23 303 290 277 288 275 298 274 242 262 151 318 134 319 344 4 10 334 330 350 327 324 320 320 311 314 309 295 273 255 149 290 312 298 291 306 327 313 297 73 239 237 244 246 248 235 232 235 223 226 199 177 222 225 201 205 212 215 215 213
159 145 150 150 145 131 118 162 185 84 85 84 92 96 106 102 82 93 99 100 108 106 36 87 88 43 323 306 279 225 269 237 279 316 254 144 28 14 16 20 340 327 342 314 317 306 307 8 304 295 299 307 315 330 334 291 239 350 325 358 312 293 303 51 348 261 231 229 219 229 216 222 220 222 219 233 226 194 197 197 202 212 217 221 220
164 149 155 150 136 127 150 165 88 96 109 125 129 134 135 130 128 114 115 110 101 70 70 63 40 149 195 242 247 217 220 188 249 168 8 17 55 353 11 338 337 338 358 340 337 348 337 331 340 339 335 305 318 327 321 331 315 204 166 323 308 297 335 329 338 296 260 333 233 229 224 223 223 220 217 234 230 243 192 192 203 205 214 215 214
169 154 148 135 130 144 157 104 117 120 134 140 141 142 149 149 142 130 130 128 116 104 58 66 82 177 89 318 327 349 322 351 2 2 38 50 28 7 16 350 349 9 349 345 331 330 318 307 338 340 343 347 336 323 307 309 294 287 208 183 203 272 300 324 335 307 332 273 284 257 213 223 219 221 230 233 228 225 227 219 189 197 195 208 208
154 146 142 140 140 149 119 117 118 129 132 135 131 110 93 89 109 118 121 133 112 107 90 102 194 106 112 325 339 314 256 243 171 25 65 38 15 14 15 360 350 327 1 353 336 306 342 352 8 343 351 336 332 320 324 325 330 302 316 270 230 236 260 295 289 312 311 313 324 307 289 239 233 229 226 223 224 226 219 221 213 203 193 197 208
155 147 149 143 143 134 125 127 123 128 130 125 135 126 126 139 143 112 102 106 114 126 103 52 351 356 39 229 59 291 247 73 40 23 16 33 12 10 13 359 0 347 347 331 310 8 9 5 352 320 319 341 341 326 328 324 325 317 325 319 301 282 266 245 247 258 269 298 309 292 263 289 267 228 210 218 225 221 214 216 212 199 207 206 203
154 153 149 147 135 123 125 128 128 135 126 125 126 130 133 135 125 115 118 110 112 102 102 121 220 211 198 224 196 224 53 33 36 34 15 30 7 8 352 356 3 357 347 342 5 357 346 344 342 348 350 349 341 327 318 333 342 327 333 319 320 308 304 286 274 243 246 284 289 298 307 291 281 271 240 219 221 220 207 210 210 212 206 196 204
158 150 141 142 126 130 132 131 132 127 130 133 130 133 108 90 109 116 120 112 105 106 107 167 195 169 183 195 96 34 52 41 45 37 28 24 3 350 5 5 350 343 340 337 3 360 358 353 356 355 345 331 328 329 338 325 318 312 309 306 308 314 306 309 308 321 284 238 279 301 303 312 309 291 266 247 231 227 222 210 204 205 207 210 211
144 154 139 132 129 138 133 121 121 127 136 133 137 130 111 103 101 114 107 112 111 101 121 180 173 147 170 94 69 59 63 67 38 56 54 20 0 337 10 358 1 2 9 9 5 354 354 352 349 343 338 335 339 334 324 313 300 301 309 314 311 312 313 308 310 305 307 307 305 297 304 303 302 306 296 274 246 236 225 201 202 203 206 213 214